Overview Statistics Trail Chart Weather Telemetry Raw packets
 

This is the latest recevied weather packets stored in our database for station/object SP2CDN-10. If no packets are shown the sender has not sent any weather packets the latest 10 day(s).

<< 2 3 4 5 6 7 8 >>
Time Temp. Humidity Pressure Rain* Wind** Luminosity Snow
1788491614 17.22° C 99% 1010.3 hPa - - - -
1788489332 17.22° C 96% 1010.4 hPa - - - -
1788487050 17.22° C 94% 1010.3 hPa - - - -
1788484769 17.22° C 94% 1010.2 hPa - - - -
1788482492 17.22° C 95% 1010.5 hPa - - - -
1788480208 17.22° C 91% 1010.4 hPa - - - -
1788477929 17.78° C 83% 1010.7 hPa - - - -
1788475647 17.78° C 76% 1010.8 hPa - - - -
1788473361 18.33° C 71% 1011.2 hPa - - - -
1788471079 18.33° C 70% 1011.1 hPa - - - -
1788468797 18.89° C 68% 1011.2 hPa - - - -
1788466516 18.33° C 70% 1011.6 hPa - - - -
1788464234 18.89° C 68% 1011.9 hPa - - - -
1788461953 18.33° C 69% 1012.3 hPa - - - -
1788459670 18.89° C 66% 1012.6 hPa - - - -
1788457389 19.44° C 64% 1012.9 hPa - - - -
1788455107 20° C 64% 1012.8 hPa - - - -
1788452825 21.11° C 59% 1012.7 hPa - - - -
1788450544 20.56° C 60% 1013.2 hPa - - - -
1788448262 21.11° C 59% 1013.6 hPa - - - -
1788445980 21.67° C 53% 1014 hPa - - - -
1788443699 21.67° C 57% 1014.2 hPa - - - -
1788441417 21.67° C 51% 1014.4 hPa - - - -
1788439140 22.22° C 46% 1014.7 hPa - - - -
1788436854 23.33° C 44% 1014.9 hPa - - - -

* Rain since midnight (hover to see other rain measurements)
** Current wind speed in m/s (hover to see current wind gust speed)